Change the Weather History Date:

Wednesday, November 20, 2013

  Actual Average Record
Temperature  
Mean Temperature 28 °F 32 °F  
Max Temperature 39 °F 45 °F 72 °F (1962)
Min Temperature 16 °F 19 °F -10 °F (2011)
Degree Days  
Heating Degree Days 37 33  
Month to date heating degree days 555 570  
Since 1 July heating degree days 1138 1273  
Cooling Degree Days 0 0  
Month to date cooling degree days 0 0  
Year to date cooling degree days 945 818  
Moisture  
Dew Point 20 °F    
Average Humidity 76    
Maximum Humidity 92    
Minimum Humidity 59    
Precipitation  
Precipitation T in 0.02 in 0.05 in (1953)
Month to date precipitation 0.41 0.48  
Year to date precipitation 15.27 16.78  
Sea Level Pressure  
Sea Level Pressure 30.00 in    
Wind  
Wind Speed 13 mph (NNW)    
Max Wind Speed 31 mph    
Max Gust Speed 39 mph    
Visibility 9 miles    
Events Snow    
T = Trace of Precipitation, MM = Missing Value Source: NWS Daily Summary

Daily Weather History Graph

Daily Weather History Graph

Search for Another Location

Airport or City:

Trip Planner

Search our weather history database for the weather conditions in past years. The results will help you decide how hot, cold, wet, or windy it might be!

Date:

Astronomy

Nov. 20, 2013 Rise Set
Actual Time 6:48 AM MST 4:15 PM MST
Civil Twilight 6:16 AM MST 4:47 PM MST
Nautical Twilight 5:41 AM MST 5:22 PM MST
Astronomical Twilight 5:07 AM MST 5:56 PM MST
Moon 7:00 PM MST (11/20) 9:15 AM MST (11/20)
Length of Visible Light 10h 30m
Length of Day
9h 27m
Waning Gibbous, 91% of the Moon is Illuminated
Nov 20
Waning Gibbous
Nov 25
Last Quarter
Dec 2
New
Dec 9
First Quarter
Dec 17
Full

Hourly Weather History & Observations

Time (MST) Temp. Windchill Dew Point Humidity Pressure Visibility Wind Dir Wind Speed Gust Speed Precip Events Conditions
12:55 AM 30.9 °F 25.2 °F 26.1 °F 82% 29.67 in 10.0 mi West 5.8 mph - N/A   Clear
1:55 AM 30.9 °F 25.2 °F 26.1 °F 82% 29.69 in 10.0 mi WNW 5.8 mph - N/A   Clear
2:55 AM 30.0 °F - 26.1 °F 85% 29.70 in 10.0 mi Calm Calm - N/A   Clear
3:55 AM 32.0 °F 25.6 °F 27.0 °F 82% 29.73 in 10.0 mi West 6.9 mph - N/A   Clear
4:55 AM 28.9 °F 22.8 °F 25.0 °F 85% 29.75 in 10.0 mi WNW 5.8 mph - N/A   Clear
5:55 AM 27.0 °F 21.6 °F 24.1 °F 89% 29.77 in 10.0 mi WNW 4.6 mph - N/A   Clear
6:55 AM 27.0 °F 18.7 °F 24.1 °F 89% 29.83 in 10.0 mi WSW 8.1 mph - N/A   Clear
7:55 AM 34.0 °F 24.6 °F 28.0 °F 79% 29.85 in 10.0 mi North 13.8 mph - N/A   Clear
8:55 AM 33.1 °F 24.4 °F 27.0 °F 78% 29.88 in 10.0 mi NNE 11.5 mph - N/A   Partly Cloudy
9:55 AM 33.1 °F 24.9 °F 26.1 °F 75% 29.91 in 10.0 mi NNE 10.4 mph - N/A   Scattered Clouds
10:06 AM 33.8 °F 27.0 °F 26.6 °F 75% 29.86 in 10.0 mi NNE 8.1 mph - N/A   Mostly Cloudy
10:55 AM 35.1 °F 27.9 °F 26.1 °F 70% 29.90 in 10.0 mi North 9.2 mph - N/A   Mostly Cloudy
11:04 AM 33.8 °F 27.0 °F 26.6 °F 75% 29.85 in 10.0 mi North 8.1 mph - N/A   Scattered Clouds
11:55 AM 36.0 °F 29.0 °F 25.0 °F 64% 29.89 in 10.0 mi North 9.2 mph - N/A   Partly Cloudy
12:55 PM 36.0 °F 31.1 °F 25.0 °F 64% 29.88 in 10.0 mi North 5.8 mph - N/A   Clear
1:55 PM 37.9 °F 32.7 °F 25.0 °F 60% 29.86 in 10.0 mi NNE 6.9 mph - N/A   Clear
2:55 PM 37.0 °F 31.6 °F 24.1 °F 59% 29.88 in 10.0 mi NE 6.9 mph - N/A   Clear
3:55 PM 37.0 °F 29.3 °F 24.1 °F 59% 29.96 in 10.0 mi North 11.5 mph - N/A   Overcast
4:55 PM 32.0 °F 20.8 °F 19.9 °F 61% 30.06 in 10.0 mi North 17.3 mph 26.5 mph N/A   Overcast
5:55 PM 28.9 °F 15.1 °F 17.1 °F 61% 30.13 in 10.0 mi North 23.0 mph 36.8 mph N/A   Overcast
6:55 PM 23.0 °F 7.2 °F 14.0 °F 68% 30.20 in 10.0 mi North 23.0 mph 39.1 mph N/A   Overcast
7:11 PM 23.0 °F 7.6 °F 12.2 °F 63% 30.14 in 10.0 mi North 21.9 mph 33.4 mph N/A   Overcast
7:35 PM 23.0 °F 7.6 °F 12.2 °F 63% 30.14 in 10.0 mi North 21.9 mph 27.6 mph N/A   Overcast
7:52 PM 23.0 °F 6.6 °F 12.2 °F 63% 30.16 in 10.0 mi NNW 25.3 mph 31.1 mph N/A   Overcast
7:55 PM 23.0 °F 6.3 °F 12.0 °F 63% 30.24 in 10.0 mi NNW 26.5 mph 32.2 mph N/A   Overcast
8:40 PM 21.2 °F 4.9 °F 8.6 °F 58% 30.21 in 10.0 mi North 23.0 mph 33.4 mph N/A   Overcast
8:55 PM 21.0 °F 5.4 °F 10.0 °F 63% 30.29 in 10.0 mi NNW 20.7 mph 31.1 mph N/A   Overcast
9:55 PM 19.0 °F 2.7 °F 10.9 °F 71% 30.33 in 9.0 mi NNW 20.7 mph 31.1 mph 0.00 in Snow Light Snow
10:37 PM 17.6 °F 0.9 °F 10.4 °F 73% 30.27 in 2.5 mi NNW 20.7 mph 32.2 mph 0.00 in Snow Light Snow
10:41 PM 17.6 °F -0.6 °F 10.4 °F 73% 30.27 in 3.0 mi NNW 25.3 mph 31.1 mph 0.00 in Snow Light Snow
10:55 PM 17.1 °F -1.0 °F 9.0 °F 71% 30.36 in 9.0 mi NNW 24.2 mph 34.5 mph 0.00 in Snow Light Snow
11:55 PM 16.0 °F -2.5 °F 8.1 °F 71% 30.39 in 6.0 mi NNW 24.2 mph 31.1 mph 0.00 in Snow Light Snow